Regional Weather Roundup
Issued by NWS

Home | Current Version | Previous Version | Graphics & Text | Print | Product List | Glossary On
Versions: 1 2 3 4 5 6 7 8 9 10 11 12 13 14 15 16 17 18 19 20 21 22 23 24 25 26 27 28 29 30 31 32 33 34 35 36 37 38 39 40 41 42 43 44 45 46 47 48 49 50
000
ASUS43 KOAX 300002
RWRNE

WEATHER ROUNDUP FOR NEBRASKA
NATIONAL WEATHER SERVICE OMAHA NE
700 PM CDT FRI JUL 29 2016

NOTES: SATELLITE DATA IS BEING USED TO AUGMENT CLOUD COVER ABOVE
       12000 FEET.
       "FAIR" INDICATES FEW OR NO CLOUDS BELOW 12,000 FEET WITH NO
       SIGNIFICANT WEATHER AND/OR OBSTRUCTIONS TO VISIBILITY.

  * THESE STATIONS DO NOT REPORT WEATHER SUCH AS RAIN...SNOW OR FOG.

NEZ001>004-019>022-054>056-300100-
NEBRASKA PANHANDLE

CITY           SKY/WX    TMP DP  RH WIND       PRES   REMARKS
SCOTTSBLUFF    LGT RAIN  65  61  87 SE22G30   30.03F
6HR MIN TEMP:  65; 6HR MAX TEMP:  87; 6HR PCP:  0.26;

ALLIANCE       CLOUDY    74  59  59 SE13      30.06R
6HR MIN TEMP:  74; 6HR MAX TEMP:  82; 6HR PCP: TRACE;

CHADRON        LGT RAIN  75  63  66 S17       29.97F
6HR MIN TEMP:  72; 6HR MAX TEMP:  86; 6HR PCP:  0.02;

KIMBALL        CLOUDY    76  58  53 SE15      30.11R
SIDNEY         CLOUDY    76  57  51 SE15      30.11R
6HR MIN TEMP:  76; 6HR MAX TEMP:  84;

$$

NEZ057>060-069>072-079>082-300100-
SOUTHWEST NEBRASKA

CITY           SKY/WX    TMP DP  RH WIND       PRES   REMARKS
NORTH PLATTE   MOSUNNY   78  66  66 CALM      30.04S
6HR MIN TEMP:  77; 6HR MAX TEMP:  83;

IMPERIAL       MOSUNNY   80  59  48 SE6       30.06S
6HR MIN TEMP:  74; 6HR MAX TEMP:  83;

LEXINGTON      MOSUNNY   78  65  63 E6        30.04S
MCCOOK         SUNNY     85  56  37 E6        30.02F
6HR MIN TEMP:  78; 6HR MAX TEMP:  86;

OGALLALA       CLOUDY    78  60  53 SE3       30.06S
$$

NEZ005>010-023>029-035>040-094-300100-
NORTH CENTRAL NEBRASKA

CITY           SKY/WX    TMP DP  RH WIND       PRES   REMARKS
VALENTINE      CLOUDY    78  60  53 SE12      30.03S
6HR MIN TEMP:  74; 6HR MAX TEMP:  80;

AINSWORTH      MOSUNNY   75  62  64 SE8       30.05S
BROKEN BOW     CLOUDY    75  65  70 E3        30.04F
6HR MIN TEMP:  69; 6HR MAX TEMP:  79;

O`NEILL        SUNNY     78  51  39 SE5       30.04F
ORD            SUNNY     77  59  53 E5        30.02F
6HR MIN TEMP:  70; 6HR MAX TEMP:  79;

THEDFORD       PTSUNNY   78  60  53 SE5       30.05F
$$

NEZ041-046>049-061>064-073>077-083>087-300100-
SOUTH CENTRAL NEBRASKA

CITY           SKY/WX    TMP DP  RH WIND       PRES   REMARKS
GRAND ISLAND   MOSUNNY   79  60  52 NE8       30.04S
6HR MIN TEMP:  75; 6HR MAX TEMP:  80; 6HR PCP: TRACE;

AURORA         MOSUNNY   78  61  56 NE5       30.03S
HASTINGS       SUNNY     79  63  57 NE6       30.03F
6HR MIN TEMP:  77; 6HR MAX TEMP:  81;

HEBRON         SUNNY     81  63  54 NE5       30.00S
HOLDREGE       SUNNY     78  64  60 E7        30.04S
KEARNEY *      SUNNY     79  63  57 NE5       30.04F
YORK           SUNNY     77  63  61 E8        30.02F
$$

NEZ011>018-030>034-042>045-300100-
NORTHEAST NEBRASKA

CITY           SKY/WX    TMP DP  RH WIND       PRES   REMARKS
NORFOLK        SUNNY     75  56  51 NE5       30.03S
6HR MIN TEMP:  75; 6HR MAX TEMP:  81;

ALBION         MOSUNNY   77  56  48 CALM      30.04F
BLAIR          SUNNY     78  64  61 NE12      30.01S
FREMONT        SUNNY     78  56  45 N3        30.01F
TEKAMAH        SUNNY     79  62  56 E9        30.00F
6HR MIN TEMP:  76; 6HR MAX TEMP:  83;

WAYNE          SUNNY     74  63  67 E3        30.03S
$$

NEZ050>053-065>068-078-088>093-300100-
SOUTHEAST NEBRASKA

CITY           SKY/WX    TMP DP  RH WIND       PRES   REMARKS
LINCOLN        SUNNY     81  57  43 NE9       30.00F
6HR MIN TEMP:  76; 6HR MAX TEMP:  83;

OMAHA EPPLEY   MOSUNNY   79  63  57 NE10      29.99F
6HR MIN TEMP:  78; 6HR MAX TEMP:  83;

BEATRICE       MOSUNNY   79  63  56 NE5       30.00S
FALLS CITY     SUNNY     80  61  52 N5        29.98F
6HR MIN TEMP:  79; 6HR MAX TEMP:  82;

NEBRASKA CITY  SUNNY     78  57  49 N3        29.99F
PLATTSMOUTH    MOSUNNY   78  63  60 NE8       30.00S
$$

NEZ044-045-051>053-067-300100-
OMAHA AREA

CITY           SKY/WX    TMP DP  RH WIND       PRES   REMARKS
OMAHA EPPLEY   MOSUNNY   79  63  57 NE10      29.99F
6HR MIN TEMP:  78; 6HR MAX TEMP:  83;

BLAIR          SUNNY     78  64  61 NE12      30.01S
FREMONT        SUNNY     78  56  45 N3        30.01F
MILLARD        MOSUNNY   79  61  53 N5        29.99F
OFFUTT AFB     SUNNY     79  63  58 NE7       29.99F
PLATTSMOUTH    MOSUNNY   78  63  60 NE8       30.00S
WAHOO          FAIR      78  60  52 N5        30.00F
$$




USA.gov is the U.S. government's official web portal to all federal, state and local government web resources and services.